User: anonymous   Login
Location: Nairn
(57.5833°N, 3.8667°W)
Time: 19:12:59
(UTC+00:00)
Language:

Cosmos 1758 - Orbit

View from above orbital plane
View from above orbital plane
View from above satellite
View from above satellite

Ground track
Ground track

The orbit data is extracted from the following two-line orbital elements,

1 16791U 86046A   20296.05053392  .00000622  00000-0  41609-4 0  9998
2 16791  82.4673 279.8874 0015127 243.1920 116.7760 15.05119114869580
Epoch (UTC): 22 October 2020 01:12:46
Eccentricity: 0.0015127
inclination: 82.4673°
perigee height: 540 km
apogee height: 561 km
right ascension of ascending node: 279.8874°
argument of perigee: 243.1920°
revolutions per day: 15.05119114
mean anomaly at epoch: 116.7760°
orbit number at epoch: 86958

The dashed part of the orbit path shows where the satellite is in the earth's shadow,  

DLR